SCP
-0 -0 0 0 0 0 0 0 0 0 0 0 0 0 0 0 0 0 0 0 0 -0 0 0 0 0 0 0 0 0 0 0 0 0 0 0 0 0 0 0 0 0 0 2 3
0 0 0 0 0 0 0 0 0 0 0 0 0 0 0 0 0 0 0 0 0 0 0 0 0 0 0 0 0 0 0 0 0 0 0 0 -0 0 0 0 0 0 0 2 3
0 0 0 0 0 0 0 0 0 0 0 0 0 0 0 0 -0 -0 0 -0 0 0 0 0 0 0 0 0 0 0 0 0 0 0 0 0 0 -0 0 0 0 0 1 2 3
0 0 0 0 0 0 0 0 0 0 0 0 0 0 0 0 0 0 0 0 0 0 0 0 0 0 0 0 0 0 0 0 0 0 0 0 -0 0 0 0 0 0 0 3 3
0 0 0 0 0 0 0 0 0 0 0 0 0 0 0 0 0 0 0 0 0 0 0 0 0 0 0 0 0 0 0 0 0 0 0 0 0 -0 0 0 0 0 0 3 1
0 0 0 0 0 0 0 0 0 0 0 -0 0 0 0 0 0 0 0 0 0 0 0 0 0 0 0 0 0 0 0 0 0 0 0 0 0 -0 -0 -0 0 0 0 0 1
0 0 0 0 0 0 0 0 0 0 -0 -0 0 0 0 0 0 0 0 0 0 0 0 0 0 0 0 0 0 0 0 0 0 0 0 0 0 -0 -0 -0 0 0 0 0 0
0 0 0 0 0 0 0 0 0 0 -0 0 0 0 0 0 0 0 0 0 0 -0 0 0 0 0 0 0 0 0 0 0 0 0 0 0 -0 -0 -0 0 0 0 0 0 0
0 0 0 0 0 -0 0 0 -0 -0 0 0 0 0 0 0 0 0 0 0 0 0 0 0 0 0 0 0 0 0 0 0 0 0 0 0 0 -0 -0 0 0 0 0 0 0
0 0 0 0 0 0 0 0 0 0 0 0 0 0 0 0 0 0 0 0 0 0 0 0 0 0 0 0 0 0 0 0 0 0 0 0 0 0 -0 0 0 0 0 0 0
0 0 0 0 0 0 0 0 0 0 0 0 0 0 0 0 0 0 0 0 0 0 0 0 0 0 0 0 0 0 0 0 0 0 0 0 0 0 0 0 0 0 0 0 0
0 0 0 0 0 0 0 0 0 0 0 -0 0 0 0 0 0 0 0 0 0 0 0 0 0 0 0 0 0 0 0 0 0 0 0 0 0 0 0 0 0 0 0 0 0
0 0 0 0 0 0 0 0 0 0 0 0 0 0 0 0 0 0 0 0 0 0 0 0 0 0 0 0 0 0 0 0 0 0 0 0 0 0 0 0 0 0 0 0 0
0 0 0 -0 0 0 0 0 0 0 0 0 0 0 0 0 0 0 0 0 0 0 0 0 0 0 0 0 0 0 0 0 0 0 0 0 0 0 0 0 0 0 0 0 0
0 0 0 0 0 0 0 0 0 0 0 0 0 0 0 0 -0 0 0 0 0 0 0 0 -0 0 0 0 0 0 0 0 0 0 0 0 0 0 0 0 0 0 0 0 0
0 0 -0 0 0 0 0 0 0 0 0 0 0 0 0 0 0 0 0 0 0 0 0 0 -0 -0 0 0 0 0 0 0 0 0 0 0 0 0 0 0 0 0 0 0 0
0 0 -0 0 0 0 0 0 0 0 0 0 0 0 0 0 0 0 0 0 -0 0 0 -0 0 0 0 0 0 0 0 0 0 0 0 0 0 0 0 0 0 0 0 0 0
0 0 0 0 0 0 0 0 0 0 0 0 0 0 0 0 0 0 0 -0 -0 -0 0 0 0 -0 0 -0 0 0 0 0 0 0 0 0 0 0 -0 0 0 0 0 0 0
0 0 0 0 0 0 0 0 0 0 0 0 0 0 0 0 0 0 0 0 -0 -0 -0 -0 -0 0 -0 -0 0 0 0 0 0 0 0 0 0 0 0 0 0 0 0 0 0
0 0 0 0 0 0 0 0 0 0 0 0 0 0 0 0 0 0 0 0 0 0 -0 0 -0 0 0 0 0 0 0 0 0 0 0 0 0 0 0 0 0 0 0 0 0
0 0 0 0 0 0 0 0 0 0 0 0 0 0 0 0 0 0 0 0 -0 -0 -0 -0 0 -0 -0 -0 0 0 0 0 0 0 0 0 0 0 0 0 0 0 0 0 0
0 0 0 0 0 0 0 0 0 0 0 0 0 0 0 0 0 0 0 0 0 0 0 0 0 0 0 -0 0 0 0 0 0 0 0 0 0 0 0 1 1 0 1 2 2
0 0 0 0 0 0 0 0 0 0 0 0 0 0 0 0 0 0 0 0 0 0 0 0 0 -0 -0 -0 0 0 0 0 0 0 0 0 0 1 1 1 1 1 2 2 1
0 0 0 0 0 0 0 0 -0 0 0 0 0 0 0 0 0 0 0 0 -0 0 -0 -0 0 -0 -0 -0 0 0 0 0 0 0 0 0 0 1 1 1 1 1 2 2 1
0 0 0 0 0 0 0 0 0 -0 0 0 0 0 -0 0 -0 0 0 -0 0 0 0 0 -0 -0 -0 -0 -0 0 0 0 0 0 0 0 0 1 1 1 1 1 1 0 0
0 0 0 0 0 0 0 0 0 -0 0 0 0 -0 -0 0 0 -0 -0 -0 0 0 0 0 0 -0 -0 -0 0 0 0 0 0 0 0 0 0 0 0 1 1 0 0 0 0
0 0 0 0 0 0 0 0 0 0 0 0 -0 -0 -0 0 -0 -0 -0 -0 -0 0 0 -0 0 0 -0 -0 -0 0 0 0 0 -0 0 0 0 0 0 1 0 0 0 0 0
Wind_Speed_500mb
56 54 52 51 50 50 50 50 50 51 52 55 56 61 61 61 61 59 66 59 59 33 27 38 30 29 30 31 43 28 7 25 25 23 18 18 9 49 45 49 56 50 47 49 79
50 49 49 50 51 52 53 55 57 59 61 63 62 58 55 59 62 71 17 17 32 22 37 43 40 29 18 25 22 14 18 31 7 22 15 23 18 24 24 40 41 58 37 65 95
55 55 56 58 59 59 59 58 56 54 52 51 52 51 48 44 52 6 5 10 18 35 28 36 29 25 20 31 33 15 32 42 13 36 40 34 41 33 24 34 33 35 47 91 101
59 59 60 62 63 63 63 60 58 57 55 52 49 42 41 32 14 10 18 22 40 34 15 44 43 18 11 20 39 14 26 47 14 31 41 42 47 37 20 33 58 58 62 87 91
62 63 64 66 67 67 64 61 56 54 50 44 40 40 33 12 50 41 37 52 42 19 19 37 50 39 14 10 24 33 29 21 43 50 56 53 43 27 56 67 65 52 26 94 101
64 65 68 72 72 67 59 44 43 46 47 46 39 31 22 20 39 34 33 34 36 22 22 35 21 49 20 17 25 11 33 50 48 50 51 48 46 31 70 49 57 46 21 63 99
68 70 72 75 71 61 45 37 32 40 52 52 41 22 27 51 36 40 38 39 27 27 45 43 47 35 24 18 46 39 31 30 33 52 34 30 34 61 81 43 53 54 34 22 69
71 73 75 74 62 50 33 33 34 42 40 34 30 10 24 30 36 34 44 69 54 25 25 38 43 41 61 27 20 4 8 26 50 24 37 32 56 51 50 36 44 37 32 27 27
72 75 75 67 52 38 28 34 46 38 19 39 15 10 26 35 38 55 62 61 56 41 34 28 43 44 28 24 8 7 17 28 25 29 18 36 46 39 48 41 43 37 33 25 18
75 77 74 54 39 27 34 45 49 20 23 34 3 17 17 39 67 61 58 42 49 33 26 27 27 7 13 19 29 30 29 21 28 14 31 39 37 22 32 46 37 36 37 32 30
78 77 67 42 24 27 42 56 44 18 48 34 58 50 68 48 43 54 40 28 15 5 9 6 7 22 19 23 31 27 28 21 15 15 26 37 42 27 28 21 27 48 49 49 42
80 75 52 36 18 25 37 41 22 28 35 31 33 36 39 33 37 56 40 20 6 12 8 3 19 21 23 29 35 34 34 32 27 21 18 32 43 26 19 34 40 43 49 54 57
81 68 37 42 13 27 36 35 33 40 10 31 22 21 18 23 36 39 36 20 15 18 15 21 15 19 16 28 28 32 33 26 28 25 21 15 28 15 23 27 50 61 73 70 60
80 59 26 47 14 33 37 45 42 55 7 12 6 15 46 31 11 9 16 12 7 10 12 22 35 29 25 26 35 30 27 31 24 25 13 11 20 18 35 31 26 48 59 72 74
78 47 19 34 41 39 43 43 40 28 7 34 17 33 74 25 42 7 24 5 20 25 3 13 21 25 21 34 22 26 29 23 28 25 7 28 5 16 19 31 31 34 52 74 68
75 32 21 29 43 40 49 62 34 10 7 18 38 44 42 36 48 32 31 5 14 13 16 20 15 11 15 14 9 21 17 28 20 6 15 32 13 10 12 41 50 25 51 70 66
74 26 15 29 37 42 54 33 10 7 21 17 45 42 43 19 32 22 28 10 8 10 3 7 27 20 14 11 5 11 2 9 11 12 12 15 15 19 20 20 28 33 42 67 67
67 22 14 29 44 39 44 11 10 13 26 29 32 37 14 27 26 20 21 3 5 9 6 6 9 4 20 15 16 20 17 7 10 13 16 18 18 16 39 20 38 61 70 71 66
69 26 5 38 41 30 17 8 7 10 22 30 39 14 19 30 13 16 14 3 7 13 7 8 7 7 18 24 20 10 18 20 5 5 6 6 10 9 15 8 16 25 50 64 66
59 15 37 42 25 15 10 8 6 9 27 21 24 13 31 31 21 24 8 4 15 15 9 5 12 9 14 6 24 10 8 13 7 8 10 12 26 11 10 11 15 17 21 55 64
41 14 40 41 18 17 5 9 14 31 31 19 15 17 14 12 19 12 12 8 11 12 13 7 6 5 4 8 21 7 7 5 9 7 9 16 11 7 5 10 14 7 30 51 59
37 7 23 42 16 8 8 17 23 35 40 11 12 8 7 15 13 7 10 13 21 24 17 5 3 10 17 9 5 4 11 15 9 12 2 5 7 12 17 6 5 21 56 70 87
41 15 21 35 7 8 13 19 18 27 29 17 10 13 15 15 16 13 12 8 22 23 5 7 4 10 2 4 3 4 15 11 8 1 7 5 5 14 11 17 12 48 59 80 90
23 8 17 18 25 5 11 12 27 29 20 34 12 17 27 26 15 20 17 10 46 33 42 25 8 14 8 3 3 11 9 19 12 6 6 4 7 12 12 23 29 53 60 80 88
21 7 13 9 12 22 23 12 30 26 12 18 8 29 38 19 31 10 40 46 28 15 4 2 10 15 28 29 25 27 21 10 21 17 10 8 5 5 6 18 31 58 63 72 81
14 13 12 26 32 14 11 15 27 41 9 14 28 41 35 23 22 49 46 40 12 10 8 3 6 6 19 32 26 19 24 9 17 25 14 8 2 3 12 7 40 62 72 75 78
19 18 16 16 11 10 5 22 32 31 26 28 40 37 41 27 65 80 73 67 42 14 9 7 4 5 7 22 20 11 22 24 13 26 20 11 8 7 11 23 35 66 76 80 84
Wind_Direction_500mb
356 353 351 348 346 344 340 336 332 326 321 318 314 313 311 307 305 298 289 295 287 273 236 223 216 208 200 225 217 218 192 231 224 208 242 266 243 265 274 273 281 272 238 209 187
355 352 351 350 348 344 340 337 334 330 325 322 320 319 319 317 317 310 312 108 51 1 232 225 229 206 199 220 213 197 220 229 177 212 236 264 249 299 320 313 309 320 277 189 177
355 353 355 353 349 345 343 340 335 329 323 319 316 315 322 328 325 311 129 90 31 344 287 240 224 225 233 227 200 210 233 230 254 240 236 258 274 288 292 286 301 325 172 154 169
354 354 354 350 348 345 342 339 333 326 325 321 317 316 318 322 300 347 267 259 303 322 289 218 223 215 206 213 209 258 240 239 228 246 237 257 278 268 256 275 295 305 170 162 166
354 353 352 348 346 342 341 338 334 339 341 333 326 317 323 314 280 313 283 266 287 303 252 206 213 215 209 210 222 229 238 256 245 252 265 270 264 284 275 278 285 298 238 173 173
353 351 350 347 344 341 343 346 348 347 344 329 320 309 304 271 329 338 327 312 292 271 231 221 212 220 269 238 237 240 215 246 249 255 247 250 271 277 265 266 278 286 263 187 182
352 351 348 346 343 346 355 359 4 354 337 328 318 303 278 274 328 334 334 325 315 286 261 238 233 232 233 264 266 270 278 271 251 239 247 251 269 243 254 270 273 279 240 209 197
351 349 347 347 348 355 8 11 359 342 335 340 332 274 261 325 320 321 325 317 305 296 269 260 242 256 255 264 294 303 242 244 250 231 238 204 250 256 259 249 256 262 251 234 191
351 349 348 350 352 358 12 2 346 329 336 339 327 282 271 320 311 317 308 300 303 277 270 258 240 240 239 231 282 246 247 235 260 223 222 206 247 254 256 231 237 255 255 241 242
350 348 347 354 357 4 5 354 355 329 331 345 309 301 274 311 311 309 313 303 296 265 257 228 222 178 215 201 215 221 234 248 245 209 222 238 244 241 239 220 225 244 248 241 241
349 347 348 360 20 2 357 356 7 348 315 300 290 268 281 307 320 315 351 336 290 203 163 137 190 233 237 242 243 253 267 258 253 220 212 230 240 246 227 226 212 227 244 244 235
348 347 348 1 8 359 353 354 359 327 312 328 294 286 294 298 316 320 334 335 355 255 204 163 215 222 239 249 233 239 254 267 274 263 224 234 237 229 218 228 224 223 228 235 236
348 347 347 359 326 359 358 347 335 331 287 301 312 292 315 308 314 294 328 315 285 267 179 227 232 218 236 256 257 233 238 243 254 272 291 236 249 223 235 231 218 228 233 237 239
349 345 343 360 14 354 1 342 314 334 41 286 337 3 335 330 306 308 12 322 278 279 277 244 242 236 229 238 239 243 245 258 262 246 236 178 247 211 219 209 211 217 223 230 233
349 343 353 336 346 347 349 347 327 326 358 337 15 338 337 356 337 335 335 286 264 253 346 240 201 202 221 229 238 260 227 232 255 263 261 267 275 246 194 214 217 218 216 226 230
349 341 337 344 341 352 344 331 315 46 294 321 353 329 331 331 343 326 326 27 298 274 244 252 271 189 183 181 247 237 300 235 244 233 235 236 200 268 192 202 218 214 210 212 214
348 337 311 348 342 356 347 350 37 68 343 320 334 329 321 344 331 314 336 10 337 324 306 267 227 213 191 154 188 216 110 185 227 200 226 191 211 244 265 222 202 204 202 212 214
349 329 314 353 344 338 334 29 42 332 302 316 325 320 301 358 321 311 322 52 321 20 309 331 280 213 194 194 165 216 188 172 202 157 219 164 205 234 232 247 229 197 200 199 196
348 346 16 352 343 332 319 38 217 285 336 325 328 320 313 333 320 333 331 330 348 27 15 309 290 249 253 214 184 181 191 201 317 187 93 199 227 289 253 254 219 191 184 200 203
349 32 17 356 343 352 71 255 243 304 319 346 314 299 312 332 330 342 300 47 360 34 342 283 287 217 286 184 193 185 152 157 255 195 161 184 214 224 204 211 270 191 183 195 201
351 359 3 357 335 24 121 250 307 338 343 323 309 298 305 306 318 306 273 313 21 1 345 300 266 318 317 228 171 150 134 170 200 258 156 167 240 320 319 247 219 257 197 171 155
348 342 341 1 45 7 338 303 319 340 350 349 306 338 268 310 291 268 257 285 340 357 306 196 238 265 240 274 19 143 161 191 140 211 285 176 251 313 253 152 205 104 124 122 126
340 304 343 13 58 339 303 310 301 335 341 3 296 5 323 309 313 237 262 261 316 330 278 161 218 299 212 66 134 169 182 165 138 114 177 123 284 340 100 101 137 116 118 119 121
345 348 339 21 7 359 318 287 346 346 307 345 286 343 322 314 279 286 270 302 302 290 277 230 198 209 229 48 310 279 241 161 153 122 151 62 26 357 99 113 128 114 120 118 117
10 4 16 314 331 321 308 323 345 351 319 326 297 329 324 314 308 259 309 308 295 253 80 214 244 232 251 255 257 253 259 176 181 144 135 157 53 319 334 143 132 119 113 108 109
21 356 329 288 295 309 328 348 345 337 306 302 332 316 312 297 283 303 306 301 275 181 149 201 267 255 269 240 225 227 227 188 178 136 110 146 222 334 250 136 118 119 114 108 108
8 334 302 278 311 328 321 337 330 337 302 296 313 311 311 301 306 290 280 270 258 235 195 198 244 287 307 147 173 230 227 189 184 155 141 157 173 139 218 139 124 116 109 108 107
Wind_Speed_850mb
56 54 52 51 50 50 50 50 50 51 52 55 56 61 61 61 61 59 66 59 59 33 27 38 30 29 30 31 43 28 7 25 25 23 18 18 9 49 45 49 56 50 47 49 79
50 49 49 50 51 52 53 55 57 59 61 63 62 58 55 59 62 71 17 17 32 22 37 43 40 29 18 25 22 14 18 31 7 22 15 23 18 24 24 40 41 58 37 65 95
55 55 56 58 59 59 59 58 56 54 52 51 52 51 48 44 52 6 5 10 18 35 28 36 29 25 20 31 33 15 32 42 13 36 40 34 41 33 24 34 33 35 47 91 101
59 59 60 62 63 63 63 60 58 57 55 52 49 42 41 32 14 10 18 22 40 34 15 44 43 18 11 20 39 14 26 47 14 31 41 42 47 37 20 33 58 58 62 87 91
62 63 64 66 67 67 64 61 56 54 50 44 40 40 33 12 50 41 37 52 42 19 19 37 50 39 14 10 24 33 29 21 43 50 56 53 43 27 56 67 65 52 26 94 101
64 65 68 72 72 67 59 44 43 46 47 46 39 31 22 20 39 34 33 34 36 22 22 35 21 49 20 17 25 11 33 50 48 50 51 48 46 31 70 49 57 46 21 63 99
68 70 72 75 71 61 45 37 32 40 52 52 41 22 27 51 36 40 38 39 27 27 45 43 47 35 24 18 46 39 31 30 33 52 34 30 34 61 81 43 53 54 34 22 69
71 73 75 74 62 50 33 33 34 42 40 34 30 10 24 30 36 34 44 69 54 25 25 38 43 41 61 27 20 4 8 26 50 24 37 32 56 51 50 36 44 37 32 27 27
72 75 75 67 52 38 28 34 46 38 19 39 15 10 26 35 38 55 62 61 56 41 34 28 43 44 28 24 8 7 17 28 25 29 18 36 46 39 48 41 43 37 33 25 18
75 77 74 54 39 27 34 45 49 20 23 34 3 17 17 39 67 61 58 42 49 33 26 27 27 7 13 19 29 30 29 21 28 14 31 39 37 22 32 46 37 36 37 32 30
78 77 67 42 24 27 42 56 44 18 48 34 58 50 68 48 43 54 40 28 15 5 9 6 7 22 19 23 31 27 28 21 15 15 26 37 42 27 28 21 27 48 49 49 42
80 75 52 36 18 25 37 41 22 28 35 31 33 36 39 33 37 56 40 20 6 12 8 3 19 21 23 29 35 34 34 32 27 21 18 32 43 26 19 34 40 43 49 54 57
81 68 37 42 13 27 36 35 33 40 10 31 22 21 18 23 36 39 36 20 15 18 15 21 15 19 16 28 28 32 33 26 28 25 21 15 28 15 23 27 50 61 73 70 60
80 59 26 47 14 33 37 45 42 55 7 12 6 15 46 31 11 9 16 12 7 10 12 22 35 29 25 26 35 30 27 31 24 25 13 11 20 18 35 31 26 48 59 72 74
78 47 19 34 41 39 43 43 40 28 7 34 17 33 74 25 42 7 24 5 20 25 3 13 21 25 21 34 22 26 29 23 28 25 7 28 5 16 19 31 31 34 52 74 68
75 32 21 29 43 40 49 62 34 10 7 18 38 44 42 36 48 32 31 5 14 13 16 20 15 11 15 14 9 21 17 28 20 6 15 32 13 10 12 41 50 25 51 70 66
74 26 15 29 37 42 54 33 10 7 21 17 45 42 43 19 32 22 28 10 8 10 3 7 27 20 14 11 5 11 2 9 11 12 12 15 15 19 20 20 28 33 42 67 67
67 22 14 29 44 39 44 11 10 13 26 29 32 37 14 27 26 20 21 3 5 9 6 6 9 4 20 15 16 20 17 7 10 13 16 18 18 16 39 20 38 61 70 71 66
69 26 5 38 41 30 17 8 7 10 22 30 39 14 19 30 13 16 14 3 7 13 7 8 7 7 18 24 20 10 18 20 5 5 6 6 10 9 15 8 16 25 50 64 66
59 15 37 42 25 15 10 8 6 9 27 21 24 13 31 31 21 24 8 4 15 15 9 5 12 9 14 6 24 10 8 13 7 8 10 12 26 11 10 11 15 17 21 55 64
41 14 40 41 18 17 5 9 14 31 31 19 15 17 14 12 19 12 12 8 11 12 13 7 6 5 4 8 21 7 7 5 9 7 9 16 11 7 5 10 14 7 30 51 59
37 7 23 42 16 8 8 17 23 35 40 11 12 8 7 15 13 7 10 13 21 24 17 5 3 10 17 9 5 4 11 15 9 12 2 5 7 12 17 6 5 21 56 70 87
41 15 21 35 7 8 13 19 18 27 29 17 10 13 15 15 16 13 12 8 22 23 5 7 4 10 2 4 3 4 15 11 8 1 7 5 5 14 11 17 12 48 59 80 90
23 8 17 18 25 5 11 12 27 29 20 34 12 17 27 26 15 20 17 10 46 33 42 25 8 14 8 3 3 11 9 19 12 6 6 4 7 12 12 23 29 53 60 80 88
21 7 13 9 12 22 23 12 30 26 12 18 8 29 38 19 31 10 40 46 28 15 4 2 10 15 28 29 25 27 21 10 21 17 10 8 5 5 6 18 31 58 63 72 81
14 13 12 26 32 14 11 15 27 41 9 14 28 41 35 23 22 49 46 40 12 10 8 3 6 6 19 32 26 19 24 9 17 25 14 8 2 3 12 7 40 62 72 75 78
19 18 16 16 11 10 5 22 32 31 26 28 40 37 41 27 65 80 73 67 42 14 9 7 4 5 7 22 20 11 22 24 13 26 20 11 8 7 11 23 35 66 76 80 84
Wind_Direction_850mb
356 353 351 348 346 344 340 336 332 326 321 318 314 313 311 307 305 298 289 295 287 273 236 223 216 208 200 225 217 218 192 231 224 208 242 266 243 265 274 273 281 272 238 209 187
355 352 351 350 348 344 340 337 334 330 325 322 320 319 319 317 317 310 312 108 51 1 232 225 229 206 199 220 213 197 220 229 177 212 236 264 249 299 320 313 309 320 277 189 177
355 353 355 353 349 345 343 340 335 329 323 319 316 315 322 328 325 311 129 90 31 344 287 240 224 225 233 227 200 210 233 230 254 240 236 258 274 288 292 286 301 325 172 154 169
354 354 354 350 348 345 342 339 333 326 325 321 317 316 318 322 300 347 267 259 303 322 289 218 223 215 206 213 209 258 240 239 228 246 237 257 278 268 256 275 295 305 170 162 166
354 353 352 348 346 342 341 338 334 339 341 333 326 317 323 314 280 313 283 266 287 303 252 206 213 215 209 210 222 229 238 256 245 252 265 270 264 284 275 278 285 298 238 173 173
353 351 350 347 344 341 343 346 348 347 344 329 320 309 304 271 329 338 327 312 292 271 231 221 212 220 269 238 237 240 215 246 249 255 247 250 271 277 265 266 278 286 263 187 182
352 351 348 346 343 346 355 359 4 354 337 328 318 303 278 274 328 334 334 325 315 286 261 238 233 232 233 264 266 270 278 271 251 239 247 251 269 243 254 270 273 279 240 209 197
351 349 347 347 348 355 8 11 359 342 335 340 332 274 261 325 320 321 325 317 305 296 269 260 242 256 255 264 294 303 242 244 250 231 238 204 250 256 259 249 256 262 251 234 191
351 349 348 350 352 358 12 2 346 329 336 339 327 282 271 320 311 317 308 300 303 277 270 258 240 240 239 231 282 246 247 235 260 223 222 206 247 254 256 231 237 255 255 241 242
350 348 347 354 357 4 5 354 355 329 331 345 309 301 274 311 311 309 313 303 296 265 257 228 222 178 215 201 215 221 234 248 245 209 222 238 244 241 239 220 225 244 248 241 241
349 347 348 360 20 2 357 356 7 348 315 300 290 268 281 307 320 315 351 336 290 203 163 137 190 233 237 242 243 253 267 258 253 220 212 230 240 246 227 226 212 227 244 244 235
348 347 348 1 8 359 353 354 359 327 312 328 294 286 294 298 316 320 334 335 355 255 204 163 215 222 239 249 233 239 254 267 274 263 224 234 237 229 218 228 224 223 228 235 236
348 347 347 359 326 359 358 347 335 331 287 301 312 292 315 308 314 294 328 315 285 267 179 227 232 218 236 256 257 233 238 243 254 272 291 236 249 223 235 231 218 228 233 237 239
349 345 343 360 14 354 1 342 314 334 41 286 337 3 335 330 306 308 12 322 278 279 277 244 242 236 229 238 239 243 245 258 262 246 236 178 247 211 219 209 211 217 223 230 233
349 343 353 336 346 347 349 347 327 326 358 337 15 338 337 356 337 335 335 286 264 253 346 240 201 202 221 229 238 260 227 232 255 263 261 267 275 246 194 214 217 218 216 226 230
349 341 337 344 341 352 344 331 315 46 294 321 353 329 331 331 343 326 326 27 298 274 244 252 271 189 183 181 247 237 300 235 244 233 235 236 200 268 192 202 218 214 210 212 214
348 337 311 348 342 356 347 350 37 68 343 320 334 329 321 344 331 314 336 10 337 324 306 267 227 213 191 154 188 216 110 185 227 200 226 191 211 244 265 222 202 204 202 212 214
349 329 314 353 344 338 334 29 42 332 302 316 325 320 301 358 321 311 322 52 321 20 309 331 280 213 194 194 165 216 188 172 202 157 219 164 205 234 232 247 229 197 200 199 196
348 346 16 352 343 332 319 38 217 285 336 325 328 320 313 333 320 333 331 330 348 27 15 309 290 249 253 214 184 181 191 201 317 187 93 199 227 289 253 254 219 191 184 200 203
349 32 17 356 343 352 71 255 243 304 319 346 314 299 312 332 330 342 300 47 360 34 342 283 287 217 286 184 193 185 152 157 255 195 161 184 214 224 204 211 270 191 183 195 201
351 359 3 357 335 24 121 250 307 338 343 323 309 298 305 306 318 306 273 313 21 1 345 300 266 318 317 228 171 150 134 170 200 258 156 167 240 320 319 247 219 257 197 171 155
348 342 341 1 45 7 338 303 319 340 350 349 306 338 268 310 291 268 257 285 340 357 306 196 238 265 240 274 19 143 161 191 140 211 285 176 251 313 253 152 205 104 124 122 126
340 304 343 13 58 339 303 310 301 335 341 3 296 5 323 309 313 237 262 261 316 330 278 161 218 299 212 66 134 169 182 165 138 114 177 123 284 340 100 101 137 116 118 119 121
345 348 339 21 7 359 318 287 346 346 307 345 286 343 322 314 279 286 270 302 302 290 277 230 198 209 229 48 310 279 241 161 153 122 151 62 26 357 99 113 128 114 120 118 117
10 4 16 314 331 321 308 323 345 351 319 326 297 329 324 314 308 259 309 308 295 253 80 214 244 232 251 255 257 253 259 176 181 144 135 157 53 319 334 143 132 119 113 108 109
21 356 329 288 295 309 328 348 345 337 306 302 332 316 312 297 283 303 306 301 275 181 149 201 267 255 269 240 225 227 227 188 178 136 110 146 222 334 250 136 118 119 114 108 108
8 334 302 278 311 328 321 337 330 337 302 296 313 311 311 301 306 290 280 270 258 235 195 198 244 287 307 147 173 230 227 189 184 155 141 157 173 139 218 139 124 116 109 108 107